Year,Month,Day,Hour,Minute,Value (Times are PST for temperature in C)
2012,08,04,00,00,21.00
2012,08,04,00,01,21.00
2012,08,04,00,02,21.00
2012,08,04,00,03,21.00
2012,08,04,00,04,21.00
2012,08,04,00,05,21.00
2012,08,04,00,06,20.90
2012,08,04,00,07,20.90
2012,08,04,00,08,20.90
2012,08,04,00,09,20.90
2012,08,04,00,10,20.90
2012,08,04,00,11,20.90
2012,08,04,00,12,20.90
2012,08,04,00,13,20.90
2012,08,04,00,14,20.90
2012,08,04,00,15,20.90
2012,08,04,00,16,20.90
2012,08,04,00,17,20.90
2012,08,04,00,18,20.90
2012,08,04,00,19,20.90
2012,08,04,00,20,20.90
2012,08,04,00,21,20.90
2012,08,04,00,22,20.90
2012,08,04,00,23,20.90
2012,08,04,00,24,20.90
2012,08,04,00,25,20.90
2012,08,04,00,26,20.90
2012,08,04,00,27,20.90
2012,08,04,00,28,20.90
2012,08,04,00,29,20.80
2012,08,04,00,30,20.80
2012,08,04,00,31,20.80
2012,08,04,00,32,20.80
2012,08,04,00,33,20.80
2012,08,04,00,34,20.80
2012,08,04,00,35,20.80
2012,08,04,00,36,20.70
2012,08,04,00,37,20.70
2012,08,04,00,38,20.70
2012,08,04,00,39,20.70
2012,08,04,00,40,20.70
2012,08,04,00,41,20.70
2012,08,04,00,42,20.60
2012,08,04,00,43,20.60
2012,08,04,00,44,20.60
2012,08,04,00,45,20.70
2012,08,04,00,46,20.70
2012,08,04,00,47,20.70
2012,08,04,00,48,20.70
2012,08,04,00,49,20.70
2012,08,04,00,50,20.60
2012,08,04,00,51,20.60
2012,08,04,00,52,20.60
2012,08,04,00,53,20.60
2012,08,04,00,54,20.60
2012,08,04,00,55,20.60
2012,08,04,00,56,20.50
2012,08,04,00,57,20.50
2012,08,04,00,58,20.40
2012,08,04,00,59,20.40
2012,08,04,01,00,20.40
2012,08,04,01,01,20.40
2012,08,04,01,02,20.30
2012,08,04,01,03,20.30
2012,08,04,01,04,20.30
2012,08,04,01,05,20.20
2012,08,04,01,06,20.20
2012,08,04,01,07,20.20
2012,08,04,01,08,20.10
2012,08,04,01,09,20.00
2012,08,04,01,10,20.00
2012,08,04,01,11,19.90
2012,08,04,01,12,19.90
2012,08,04,01,13,19.80
2012,08,04,01,14,19.80
2012,08,04,01,15,19.80
2012,08,04,01,16,19.80
2012,08,04,01,17,19.70
2012,08,04,01,18,19.70
2012,08,04,01,19,19.70
2012,08,04,01,20,19.70
2012,08,04,01,21,19.70
2012,08,04,01,22,19.60
2012,08,04,01,23,19.60
2012,08,04,01,24,19.60
2012,08,04,01,25,19.60
2012,08,04,01,26,19.60
2012,08,04,01,27,19.60
2012,08,04,01,28,19.70
2012,08,04,01,29,19.70
2012,08,04,01,30,19.70
2012,08,04,01,31,19.70
2012,08,04,01,32,19.80
2012,08,04,01,33,19.80
2012,08,04,01,34,19.80
2012,08,04,01,35,19.70
2012,08,04,01,36,19.70
2012,08,04,01,37,19.70
2012,08,04,01,38,19.70
2012,08,04,01,39,19.70
2012,08,04,01,40,19.70
2012,08,04,01,41,19.70
2012,08,04,01,42,19.70
2012,08,04,01,43,19.70
2012,08,04,01,44,19.70
2012,08,04,01,45,19.70
2012,08,04,01,46,19.70
2012,08,04,01,47,19.80
2012,08,04,01,48,19.80
2012,08,04,01,49,19.80
2012,08,04,01,50,19.80
2012,08,04,01,51,19.80
2012,08,04,01,52,19.80
2012,08,04,01,53,19.80
2012,08,04,01,54,19.70
2012,08,04,01,55,19.70
2012,08,04,01,56,19.70
2012,08,04,01,57,19.70
2012,08,04,01,58,19.70
2012,08,04,01,59,19.70
2012,08,04,02,00,19.70
2012,08,04,02,01,19.60
2012,08,04,02,02,19.60
2012,08,04,02,03,19.60
2012,08,04,02,04,19.60
2012,08,04,02,05,19.50
2012,08,04,02,06,19.50
2012,08,04,02,07,19.50
2012,08,04,02,08,19.40
2012,08,04,02,09,19.40
2012,08,04,02,10,19.40
2012,08,04,02,11,19.40
2012,08,04,02,12,19.30
2012,08,04,02,13,19.30
2012,08,04,02,14,19.30
2012,08,04,02,15,19.20
2012,08,04,02,16,19.20
2012,08,04,02,17,19.10
2012,08,04,02,18,19.00
2012,08,04,02,19,19.00
2012,08,04,02,20,18.90
2012,08,04,02,21,18.90
2012,08,04,02,22,18.80
2012,08,04,02,23,18.80
2012,08,04,02,24,18.70
2012,08,04,02,25,18.70
2012,08,04,02,26,18.70
2012,08,04,02,27,18.70
2012,08,04,02,28,18.60
2012,08,04,02,29,18.60
2012,08,04,02,30,18.60
2012,08,04,02,31,18.60
2012,08,04,02,32,18.60
2012,08,04,02,33,18.60
2012,08,04,02,34,18.60
2012,08,04,02,35,18.60
2012,08,04,02,36,18.60
2012,08,04,02,37,18.50
2012,08,04,02,38,18.50
2012,08,04,02,39,18.50
2012,08,04,02,40,18.60
2012,08,04,02,41,18.60
2012,08,04,02,42,18.60
2012,08,04,02,43,18.70
2012,08,04,02,44,18.70
2012,08,04,02,45,18.70
2012,08,04,02,46,18.80
2012,08,04,02,47,18.80
2012,08,04,02,48,18.80
2012,08,04,02,49,18.90
2012,08,04,02,50,18.90
2012,08,04,02,51,18.90
2012,08,04,02,52,18.90
2012,08,04,02,53,18.90
2012,08,04,02,54,18.90
2012,08,04,02,55,18.90
2012,08,04,02,56,18.90
2012,08,04,02,57,18.90
2012,08,04,02,58,18.80
2012,08,04,02,59,18.80
2012,08,04,03,00,18.80
2012,08,04,03,01,18.70
2012,08,04,03,02,18.70
2012,08,04,03,03,18.70
2012,08,04,03,04,18.70
2012,08,04,03,05,18.70
2012,08,04,03,06,18.70
2012,08,04,03,07,18.70
2012,08,04,03,08,18.70
2012,08,04,03,09,18.70
2012,08,04,03,10,18.70
2012,08,04,03,11,18.70
2012,08,04,03,12,18.70
2012,08,04,03,13,18.70
2012,08,04,03,14,18.70
2012,08,04,03,15,18.70
2012,08,04,03,16,18.70
2012,08,04,03,17,18.70
2012,08,04,03,18,18.70
2012,08,04,03,19,18.60
2012,08,04,03,20,18.60
2012,08,04,03,21,18.60
2012,08,04,03,22,18.50
2012,08,04,03,23,18.50
2012,08,04,03,24,18.40
2012,08,04,03,25,18.40
2012,08,04,03,26,18.40
2012,08,04,03,27,18.30
2012,08,04,03,28,18.30
2012,08,04,03,29,18.30
2012,08,04,03,30,18.30
2012,08,04,03,31,18.30
2012,08,04,03,32,18.20
2012,08,04,03,33,18.20
2012,08,04,03,34,18.20
2012,08,04,03,35,18.20
2012,08,04,03,36,18.20
2012,08,04,03,37,18.20
2012,08,04,03,38,18.20
2012,08,04,03,39,18.20
2012,08,04,03,40,18.20
2012,08,04,03,41,18.20
2012,08,04,03,42,18.20
2012,08,04,03,43,18.20
2012,08,04,03,44,18.20
2012,08,04,03,45,18.20
2012,08,04,03,46,18.30
2012,08,04,03,47,18.30
2012,08,04,03,48,18.30
2012,08,04,03,49,18.30
2012,08,04,03,50,18.30
2012,08,04,03,51,18.40
2012,08,04,03,52,18.40
2012,08,04,03,53,18.40
2012,08,04,03,54,18.40
2012,08,04,03,55,18.40
2012,08,04,03,56,18.40
2012,08,04,03,57,18.50
2012,08,04,03,58,18.50
2012,08,04,03,59,18.50
2012,08,04,04,00,18.50
2012,08,04,04,01,18.60
2012,08,04,04,02,18.60
2012,08,04,04,03,18.60
2012,08,04,04,04,18.60
2012,08,04,04,05,18.60
2012,08,04,04,06,18.50
2012,08,04,04,07,18.50
2012,08,04,04,08,18.50
2012,08,04,04,09,18.50
2012,08,04,04,10,18.50
2012,08,04,04,11,18.40
2012,08,04,04,12,18.40
2012,08,04,04,13,18.40
2012,08,04,04,14,18.40
2012,08,04,04,15,18.40
2012,08,04,04,16,18.30
2012,08,04,04,17,18.30
2012,08,04,04,18,18.30
2012,08,04,04,19,18.30
2012,08,04,04,20,18.30
2012,08,04,04,21,18.30
2012,08,04,04,22,18.30
2012,08,04,04,23,18.30
2012,08,04,04,24,18.30
2012,08,04,04,25,18.40
2012,08,04,04,26,18.40
2012,08,04,04,27,18.40
2012,08,04,04,28,18.40
2012,08,04,04,29,18.40
2012,08,04,04,30,18.40
2012,08,04,04,31,18.40
2012,08,04,04,32,18.40
2012,08,04,04,33,18.40
2012,08,04,04,34,18.40
2012,08,04,04,35,18.40
2012,08,04,04,36,18.30
2012,08,04,04,37,18.30
2012,08,04,04,38,18.30
2012,08,04,04,39,18.30
2012,08,04,04,40,18.20
2012,08,04,04,41,18.20
2012,08,04,04,42,18.20
2012,08,04,04,43,18.20
2012,08,04,04,44,18.20
2012,08,04,04,45,18.20
2012,08,04,04,46,18.20
2012,08,04,04,47,18.20
2012,08,04,04,48,18.20
2012,08,04,04,49,18.20
2012,08,04,04,50,18.20
2012,08,04,04,51,18.20
2012,08,04,04,52,18.20
2012,08,04,04,53,18.20
2012,08,04,04,54,18.20
2012,08,04,04,55,18.20
2012,08,04,04,56,18.20
2012,08,04,04,57,18.20
2012,08,04,04,58,18.20
2012,08,04,04,59,18.20
2012,08,04,05,00,18.20
2012,08,04,05,01,18.20
2012,08,04,05,02,18.20
2012,08,04,05,03,18.20
2012,08,04,05,04,18.20
2012,08,04,05,05,18.20
2012,08,04,05,06,18.20
2012,08,04,05,07,18.20
2012,08,04,05,08,18.20
2012,08,04,05,09,18.20
2012,08,04,05,10,18.20
2012,08,04,05,11,18.20
2012,08,04,05,12,18.20
2012,08,04,05,13,18.20
2012,08,04,05,14,18.20
2012,08,04,05,15,18.20
2012,08,04,05,16,18.30
2012,08,04,05,17,18.30
2012,08,04,05,18,18.20
2012,08,04,05,19,18.20
2012,08,04,05,20,18.20
2012,08,04,05,21,18.20
2012,08,04,05,22,18.20
2012,08,04,05,23,18.20
2012,08,04,05,24,18.20
2012,08,04,05,25,18.20
2012,08,04,05,26,18.20
2012,08,04,05,27,18.20
2012,08,04,05,28,18.20
2012,08,04,05,29,18.20
2012,08,04,05,30,18.20
2012,08,04,05,31,18.20
2012,08,04,05,32,18.20
2012,08,04,05,33,18.20
2012,08,04,05,34,18.20
2012,08,04,05,35,18.20
2012,08,04,05,36,18.20
2012,08,04,05,37,18.20
2012,08,04,05,38,18.20
2012,08,04,05,39,18.20
2012,08,04,05,40,18.20
2012,08,04,05,41,18.20
2012,08,04,05,42,18.20
2012,08,04,05,43,18.20
2012,08,04,05,44,18.10
2012,08,04,05,45,18.10
2012,08,04,05,46,18.10
2012,08,04,05,47,18.10
2012,08,04,05,48,18.10
2012,08,04,05,49,18.10
2012,08,04,05,50,18.10
2012,08,04,05,51,18.10
2012,08,04,05,52,18.10
2012,08,04,05,53,18.10
2012,08,04,05,54,18.10
2012,08,04,05,55,18.10
2012,08,04,05,56,18.10
2012,08,04,05,57,18.10
2012,08,04,05,58,18.10
2012,08,04,05,59,18.10
2012,08,04,06,00,18.10
2012,08,04,06,01,18.10
2012,08,04,06,02,18.10
2012,08,04,06,03,18.10
2012,08,04,06,04,18.10
2012,08,04,06,05,18.10
2012,08,04,06,06,18.00
2012,08,04,06,07,18.00
2012,08,04,06,08,18.00
2012,08,04,06,09,18.00
2012,08,04,06,10,18.00
2012,08,04,06,11,18.00
2012,08,04,06,12,18.00
2012,08,04,06,13,18.00
2012,08,04,06,14,18.10
2012,08,04,06,15,18.10
2012,08,04,06,16,18.10
2012,08,04,06,17,18.10
2012,08,04,06,18,18.10
2012,08,04,06,19,18.10
2012,08,04,06,20,18.20
2012,08,04,06,21,18.20
2012,08,04,06,22,18.20
2012,08,04,06,23,18.20
2012,08,04,06,24,18.20
2012,08,04,06,25,18.20
2012,08,04,06,26,18.20
2012,08,04,06,27,18.20
2012,08,04,06,28,18.20
2012,08,04,06,29,18.20
2012,08,04,06,30,18.20
2012,08,04,06,31,18.20
2012,08,04,06,32,18.20
2012,08,04,06,33,18.20
2012,08,04,06,34,18.20
2012,08,04,06,35,18.20
2012,08,04,06,36,18.20
2012,08,04,06,37,18.30
2012,08,04,06,38,18.30
2012,08,04,06,39,18.30
2012,08,04,06,40,18.30
2012,08,04,06,41,18.30
2012,08,04,06,42,18.30
2012,08,04,06,43,18.40
2012,08,04,06,44,18.40
2012,08,04,06,45,18.40
2012,08,04,06,46,18.50
2012,08,04,06,47,18.50
2012,08,04,06,48,18.60
2012,08,04,06,49,18.60
2012,08,04,06,50,18.70
2012,08,04,06,51,18.70
2012,08,04,06,52,18.80
2012,08,04,06,53,18.80
2012,08,04,06,54,18.90
2012,08,04,06,55,18.90
2012,08,04,06,56,19.00
2012,08,04,06,57,19.00
2012,08,04,06,58,19.10
2012,08,04,06,59,19.10
2012,08,04,07,00,19.20
2012,08,04,07,01,19.20
2012,08,04,07,02,19.20
2012,08,04,07,03,19.30
2012,08,04,07,04,19.30
2012,08,04,07,05,19.30
2012,08,04,07,06,19.30
2012,08,04,07,07,19.40
2012,08,04,07,08,19.40
2012,08,04,07,09,19.50
2012,08,04,07,10,19.50
2012,08,04,07,11,19.60
2012,08,04,07,12,19.60
2012,08,04,07,13,19.70
2012,08,04,07,14,19.70
2012,08,04,07,15,19.80
2012,08,04,07,16,19.80
2012,08,04,07,17,19.90
2012,08,04,07,18,19.90
2012,08,04,07,19,20.00
2012,08,04,07,20,20.00
2012,08,04,07,21,20.10
2012,08,04,07,22,20.10
2012,08,04,07,23,20.20
2012,08,04,07,24,20.20
2012,08,04,07,25,20.30
2012,08,04,07,26,20.30
2012,08,04,07,27,20.30
2012,08,04,07,28,20.40
2012,08,04,07,29,20.40
2012,08,04,07,30,20.40
2012,08,04,07,31,20.40
2012,08,04,07,32,20.40
2012,08,04,07,33,20.50
2012,08,04,07,34,20.50
2012,08,04,07,35,20.60
2012,08,04,07,36,20.60
2012,08,04,07,37,20.70
2012,08,04,07,38,20.70
2012,08,04,07,39,20.80
2012,08,04,07,40,20.90
2012,08,04,07,41,20.90
2012,08,04,07,42,21.00
2012,08,04,07,43,21.10
2012,08,04,07,44,21.10
2012,08,04,07,45,21.10
2012,08,04,07,46,21.10
2012,08,04,07,47,21.20
2012,08,04,07,48,21.20
2012,08,04,07,49,21.20
2012,08,04,07,50,21.20
2012,08,04,07,51,21.30
2012,08,04,07,52,21.30
2012,08,04,07,53,21.30
2012,08,04,07,54,21.30
2012,08,04,07,55,21.30
2012,08,04,07,56,21.30
2012,08,04,07,57,21.30
2012,08,04,07,58,21.30
2012,08,04,07,59,21.30
2012,08,04,08,00,21.30
2012,08,04,08,01,21.40
2012,08,04,08,02,21.40
2012,08,04,08,03,21.50
2012,08,04,08,04,21.60
2012,08,04,08,05,21.70
2012,08,04,08,06,21.70
2012,08,04,08,07,21.80
2012,08,04,08,08,21.80
2012,08,04,08,09,21.80
2012,08,04,08,10,21.80
2012,08,04,08,11,21.80
2012,08,04,08,12,21.80
2012,08,04,08,13,21.90
2012,08,04,08,14,21.90
2012,08,04,08,15,22.00
2012,08,04,08,16,22.00
2012,08,04,08,17,22.00
2012,08,04,08,18,22.00
2012,08,04,08,19,21.90
2012,08,04,08,20,22.00
2012,08,04,08,21,22.00
2012,08,04,08,22,22.10
2012,08,04,08,23,22.10
2012,08,04,08,24,22.20
2012,08,04,08,25,22.20
2012,08,04,08,26,22.20
2012,08,04,08,27,22.20
2012,08,04,08,28,22.20
2012,08,04,08,29,22.20
2012,08,04,08,30,22.20
2012,08,04,08,31,22.20
2012,08,04,08,32,22.10
2012,08,04,08,33,22.10
2012,08,04,08,34,22.10
2012,08,04,08,35,22.10
2012,08,04,08,36,22.10
2012,08,04,08,37,22.20
2012,08,04,08,38,22.20
2012,08,04,08,39,22.20
2012,08,04,08,40,22.20
2012,08,04,08,41,22.20
2012,08,04,08,42,22.20
2012,08,04,08,43,22.20
2012,08,04,08,44,22.30
2012,08,04,08,45,22.30
2012,08,04,08,46,22.30
2012,08,04,08,47,22.40
2012,08,04,08,48,22.40
2012,08,04,08,49,22.40
2012,08,04,08,50,22.40
2012,08,04,08,51,22.40
2012,08,04,08,52,22.50
2012,08,04,08,53,22.50
2012,08,04,08,54,22.60
2012,08,04,08,55,22.60
2012,08,04,08,56,22.60
2012,08,04,08,57,22.50
2012,08,04,08,58,22.40
2012,08,04,08,59,22.30
2012,08,04,09,00,22.20
2012,08,04,09,01,22.10
2012,08,04,09,02,22.00
2012,08,04,09,03,22.00
2012,08,04,09,04,22.00
2012,08,04,09,05,22.00
2012,08,04,09,06,22.10
2012,08,04,09,07,22.10
2012,08,04,09,08,22.10
2012,08,04,09,09,22.20
2012,08,04,09,10,22.30
2012,08,04,09,11,22.30
2012,08,04,09,12,22.40
2012,08,04,09,13,22.50
2012,08,04,09,14,22.60
2012,08,04,09,15,22.70
2012,08,04,09,16,22.70
2012,08,04,09,17,22.70
2012,08,04,09,18,22.80
2012,08,04,09,19,22.80
2012,08,04,09,20,22.90
2012,08,04,09,21,23.00
2012,08,04,09,22,23.10
2012,08,04,09,23,23.00
2012,08,04,09,24,23.00
2012,08,04,09,25,22.80
2012,08,04,09,26,22.70
2012,08,04,09,27,22.60
2012,08,04,09,28,22.50
2012,08,04,09,29,22.50
2012,08,04,09,30,22.40
2012,08,04,09,31,22.40
2012,08,04,09,32,22.40
2012,08,04,09,33,22.40
2012,08,04,09,34,22.40
2012,08,04,09,35,22.40
2012,08,04,09,36,22.50
2012,08,04,09,37,22.50
2012,08,04,09,38,22.50
2012,08,04,09,39,22.50
2012,08,04,09,40,22.50
2012,08,04,09,41,22.60
2012,08,04,09,42,22.60
2012,08,04,09,43,22.60
2012,08,04,09,44,22.70
2012,08,04,09,45,22.70
2012,08,04,09,46,22.60
2012,08,04,09,47,22.60
2012,08,04,09,48,22.60
2012,08,04,09,49,22.60
2012,08,04,09,50,22.60
2012,08,04,09,51,22.60
2012,08,04,09,52,22.60
2012,08,04,09,53,22.60
2012,08,04,09,54,22.60
2012,08,04,09,55,22.70
2012,08,04,09,56,22.60
2012,08,04,09,57,22.60
2012,08,04,09,58,22.60
2012,08,04,09,59,22.60
2012,08,04,10,00,22.60
2012,08,04,10,01,22.50
2012,08,04,10,02,22.50
2012,08,04,10,03,22.50
2012,08,04,10,04,22.50
2012,08,04,10,05,22.60
2012,08,04,10,06,22.60
2012,08,04,10,07,22.60
2012,08,04,10,08,22.70
2012,08,04,10,09,22.70
2012,08,04,10,10,22.80
2012,08,04,10,11,22.80
2012,08,04,10,12,22.80
2012,08,04,10,13,22.90
2012,08,04,10,14,22.80
2012,08,04,10,15,22.80
2012,08,04,10,16,22.80
2012,08,04,10,17,22.80
2012,08,04,10,18,22.80
2012,08,04,10,19,22.80
2012,08,04,10,20,22.80
2012,08,04,10,21,22.90
2012,08,04,10,22,22.90
2012,08,04,10,23,22.90
2012,08,04,10,24,22.80
2012,08,04,10,25,22.70
2012,08,04,10,26,22.60
2012,08,04,10,27,22.60
2012,08,04,10,28,22.60
2012,08,04,10,29,22.70
2012,08,04,10,30,22.70
2012,08,04,10,31,22.80
2012,08,04,10,32,22.80
2012,08,04,10,33,22.90
2012,08,04,10,34,22.90
2012,08,04,10,35,23.00
2012,08,04,10,36,23.00
2012,08,04,10,37,23.00
2012,08,04,10,38,23.00
2012,08,04,10,39,23.00
2012,08,04,10,40,23.00
2012,08,04,10,41,23.00
2012,08,04,10,42,23.00
2012,08,04,10,43,23.00
2012,08,04,10,44,23.00
2012,08,04,10,45,22.90
2012,08,04,10,46,22.80
2012,08,04,10,47,22.80
2012,08,04,10,48,22.70
2012,08,04,10,49,22.70
2012,08,04,10,50,22.70
2012,08,04,10,51,22.60
2012,08,04,10,52,22.60
2012,08,04,10,53,22.60
2012,08,04,10,54,22.60
2012,08,04,10,55,22.60
2012,08,04,10,56,22.70
2012,08,04,10,57,22.70
2012,08,04,10,58,22.80
2012,08,04,10,59,22.80
2012,08,04,11,00,22.80
2012,08,04,11,01,22.80
2012,08,04,11,02,22.80
2012,08,04,11,03,22.80
2012,08,04,11,04,22.80
2012,08,04,11,05,22.80
2012,08,04,11,06,22.90
2012,08,04,11,07,23.00
2012,08,04,11,08,23.10
2012,08,04,11,09,23.10
2012,08,04,11,10,23.20
2012,08,04,11,11,23.20
2012,08,04,11,12,23.20
2012,08,04,11,13,23.20
2012,08,04,11,14,23.30
2012,08,04,11,15,23.30
2012,08,04,11,16,23.40
2012,08,04,11,17,23.50
2012,08,04,11,18,23.60
2012,08,04,11,19,23.70
2012,08,04,11,20,23.70
2012,08,04,11,21,23.60
2012,08,04,11,22,23.60
2012,08,04,11,23,23.60
2012,08,04,11,24,23.60
2012,08,04,11,25,23.70
2012,08,04,11,26,23.70
2012,08,04,11,27,23.80
2012,08,04,11,28,23.80
2012,08,04,11,29,23.90
2012,08,04,11,30,24.00
2012,08,04,11,31,24.10
2012,08,04,11,32,24.10
2012,08,04,11,33,24.10
2012,08,04,11,34,24.10
2012,08,04,11,35,24.10
2012,08,04,11,36,24.10
2012,08,04,11,37,24.10
2012,08,04,11,38,24.10
2012,08,04,11,39,24.20
2012,08,04,11,40,24.30
2012,08,04,11,41,24.40
2012,08,04,11,42,24.50
2012,08,04,11,43,24.50
2012,08,04,11,44,24.50
2012,08,04,11,45,24.50
2012,08,04,11,46,24.50
2012,08,04,11,47,24.40
2012,08,04,11,48,24.40
2012,08,04,11,49,24.40
2012,08,04,11,50,24.50
2012,08,04,11,51,24.50
2012,08,04,11,52,24.50
2012,08,04,11,53,24.50
2012,08,04,11,54,24.50
2012,08,04,11,55,24.60
2012,08,04,11,56,24.50
2012,08,04,11,57,24.40
2012,08,04,11,58,24.30
2012,08,04,11,59,24.20
2012,08,04,12,00,24.20
2012,08,04,12,01,24.20
2012,08,04,12,02,24.20
2012,08,04,12,03,24.20
2012,08,04,12,04,24.20
2012,08,04,12,05,24.30
2012,08,04,12,06,24.30
2012,08,04,12,07,24.30
2012,08,04,12,08,24.30
2012,08,04,12,09,24.30
2012,08,04,12,10,24.30
2012,08,04,12,11,24.20
2012,08,04,12,12,24.20
2012,08,04,12,13,24.30
2012,08,04,12,14,24.30
2012,08,04,12,15,24.30
2012,08,04,12,16,24.30
2012,08,04,12,17,24.30
2012,08,04,12,18,24.30
2012,08,04,12,19,24.30
2012,08,04,12,20,24.40
2012,08,04,12,21,24.50
2012,08,04,12,22,24.60
2012,08,04,12,23,24.60
2012,08,04,12,24,24.70
2012,08,04,12,25,24.80
2012,08,04,12,26,24.90
2012,08,04,12,27,24.90
2012,08,04,12,28,25.00
2012,08,04,12,29,25.00
2012,08,04,12,30,25.00
2012,08,04,12,31,25.10
2012,08,04,12,32,25.10
2012,08,04,12,33,25.10
2012,08,04,12,34,25.20
2012,08,04,12,35,25.20
2012,08,04,12,36,25.30
2012,08,04,12,37,25.30
2012,08,04,12,38,25.40
2012,08,04,12,39,25.50
2012,08,04,12,40,25.50
2012,08,04,12,41,25.60
2012,08,04,12,42,25.70
2012,08,04,12,43,25.80
2012,08,04,12,44,25.80
2012,08,04,12,45,25.80
2012,08,04,12,46,25.80
2012,08,04,12,47,25.90
2012,08,04,12,48,25.80
2012,08,04,12,49,25.80
2012,08,04,12,50,25.80
2012,08,04,12,51,25.70
2012,08,04,12,52,25.70
2012,08,04,12,53,25.70
2012,08,04,12,54,25.80
2012,08,04,12,55,25.80
2012,08,04,12,56,25.70
2012,08,04,12,57,25.70
2012,08,04,12,58,25.70
2012,08,04,12,59,25.80
2012,08,04,13,00,25.90
2012,08,04,13,01,25.90
2012,08,04,13,02,25.90
2012,08,04,13,03,25.90
2012,08,04,13,04,26.00
2012,08,04,13,05,26.10
2012,08,04,13,06,26.00
2012,08,04,13,07,26.00
2012,08,04,13,08,26.00
2012,08,04,13,09,26.00
2012,08,04,13,10,26.10
2012,08,04,13,11,26.10
2012,08,04,13,12,26.10
2012,08,04,13,13,26.10
2012,08,04,13,14,26.10
2012,08,04,13,15,26.10
2012,08,04,13,16,26.10
2012,08,04,13,17,26.10
2012,08,04,13,18,26.00
2012,08,04,13,19,25.90
2012,08,04,13,20,25.90
2012,08,04,13,21,25.90
2012,08,04,13,22,25.80
2012,08,04,13,23,25.80
2012,08,04,13,24,25.80
2012,08,04,13,25,25.70
2012,08,04,13,26,25.70
2012,08,04,13,27,25.70
2012,08,04,13,28,25.70
2012,08,04,13,29,25.70
2012,08,04,13,30,25.80
2012,08,04,13,31,25.90
2012,08,04,13,32,25.90
2012,08,04,13,33,25.90
2012,08,04,13,34,25.90
2012,08,04,13,35,25.90
2012,08,04,13,36,25.90
2012,08,04,13,37,25.90
2012,08,04,13,38,26.00
2012,08,04,13,39,26.00
2012,08,04,13,40,26.00
2012,08,04,13,41,26.10
2012,08,04,13,42,26.10
2012,08,04,13,43,26.20
2012,08,04,13,44,26.20
2012,08,04,13,45,26.20
2012,08,04,13,46,26.30
2012,08,04,13,47,26.30
2012,08,04,13,48,26.40
2012,08,04,13,49,26.40
2012,08,04,13,50,26.40
2012,08,04,13,51,26.40
2012,08,04,13,52,26.50
2012,08,04,13,53,26.40
2012,08,04,13,54,26.40
2012,08,04,13,55,26.40
2012,08,04,13,56,26.40
2012,08,04,13,57,26.40
2012,08,04,13,58,26.30
2012,08,04,13,59,26.30
2012,08,04,14,00,26.30
2012,08,04,14,01,26.30
2012,08,04,14,02,26.40
2012,08,04,14,03,26.40
2012,08,04,14,04,26.40
2012,08,04,14,05,26.40
2012,08,04,14,06,26.50
2012,08,04,14,07,26.50
2012,08,04,14,08,26.60
2012,08,04,14,09,26.60
2012,08,04,14,10,26.60
2012,08,04,14,11,26.60
2012,08,04,14,12,26.60
2012,08,04,14,13,26.70
2012,08,04,14,14,26.70
2012,08,04,14,15,26.80
2012,08,04,14,16,26.80
2012,08,04,14,17,26.90
2012,08,04,14,18,26.90
2012,08,04,14,19,26.90
2012,08,04,14,20,26.90
2012,08,04,14,21,26.90
2012,08,04,14,22,26.90
2012,08,04,14,23,26.90
2012,08,04,14,24,26.80
2012,08,04,14,25,26.80
2012,08,04,14,26,26.80
2012,08,04,14,27,26.70
2012,08,04,14,28,26.70
2012,08,04,14,29,26.70
2012,08,04,14,30,26.70
2012,08,04,14,31,26.70
2012,08,04,14,32,26.80
2012,08,04,14,33,26.80
2012,08,04,14,34,26.80
2012,08,04,14,35,26.90
2012,08,04,14,36,27.00
2012,08,04,14,37,27.10
2012,08,04,14,38,27.00
2012,08,04,14,39,27.00
2012,08,04,14,40,26.90
2012,08,04,14,41,26.90
2012,08,04,14,42,26.90
2012,08,04,14,43,27.00
2012,08,04,14,44,27.10
2012,08,04,14,45,27.10
2012,08,04,14,46,27.20
2012,08,04,14,47,27.30
2012,08,04,14,48,27.30
2012,08,04,14,49,27.40
2012,08,04,14,50,27.40
2012,08,04,14,51,27.40
2012,08,04,14,52,27.40
2012,08,04,14,53,27.30
2012,08,04,14,54,27.30
2012,08,04,14,55,27.30
2012,08,04,14,56,27.30
2012,08,04,14,57,27.30
2012,08,04,14,58,27.20
2012,08,04,14,59,27.20
2012,08,04,15,00,27.20
2012,08,04,15,01,27.20
2012,08,04,15,02,27.20
2012,08,04,15,03,27.20
2012,08,04,15,04,27.20
2012,08,04,15,05,27.30
2012,08,04,15,06,27.30
2012,08,04,15,07,27.40
2012,08,04,15,08,27.40
2012,08,04,15,09,27.40
2012,08,04,15,10,27.40
2012,08,04,15,11,27.40
2012,08,04,15,12,27.50
2012,08,04,15,13,27.50
2012,08,04,15,14,27.60
2012,08,04,15,15,27.70
2012,08,04,15,16,27.70
2012,08,04,15,17,27.70
2012,08,04,15,18,27.70
2012,08,04,15,19,27.70
2012,08,04,15,20,27.70
2012,08,04,15,21,27.80
2012,08,04,15,22,27.80
2012,08,04,15,23,27.80
2012,08,04,15,24,27.90
2012,08,04,15,25,28.00
2012,08,04,15,26,28.00
2012,08,04,15,27,28.00
2012,08,04,15,28,28.00
2012,08,04,15,29,28.10
2012,08,04,15,30,28.10
2012,08,04,15,31,28.00
2012,08,04,15,32,28.00
2012,08,04,15,33,28.10
2012,08,04,15,34,28.10
2012,08,04,15,35,28.10
2012,08,04,15,36,28.20
2012,08,04,15,37,28.20
2012,08,04,15,38,28.20
2012,08,04,15,39,28.20
2012,08,04,15,40,28.20
2012,08,04,15,41,28.20
2012,08,04,15,42,28.10
2012,08,04,15,43,28.10
2012,08,04,15,44,28.20
2012,08,04,15,45,28.20
2012,08,04,15,46,28.20
2012,08,04,15,47,28.20
2012,08,04,15,48,28.20
2012,08,04,15,49,28.20
2012,08,04,15,50,28.20
2012,08,04,15,51,28.30
2012,08,04,15,52,28.30
2012,08,04,15,53,28.40
2012,08,04,15,54,28.40
2012,08,04,15,55,28.40
2012,08,04,15,56,28.40
2012,08,04,15,57,28.30
2012,08,04,15,58,28.30
2012,08,04,15,59,28.30
2012,08,04,16,00,28.20
2012,08,04,16,01,28.20
2012,08,04,16,02,28.20
2012,08,04,16,03,28.30
2012,08,04,16,04,28.30
2012,08,04,16,05,28.30
2012,08,04,16,06,28.40
2012,08,04,16,07,28.40
2012,08,04,16,08,28.50
2012,08,04,16,09,28.60
2012,08,04,16,10,28.70
2012,08,04,16,11,28.70
2012,08,04,16,12,28.80
2012,08,04,16,13,28.90
2012,08,04,16,14,29.00
2012,08,04,16,15,29.10
2012,08,04,16,16,29.10
2012,08,04,16,17,29.00
2012,08,04,16,18,29.00
2012,08,04,16,19,29.10
2012,08,04,16,20,29.00
2012,08,04,16,21,29.00
2012,08,04,16,22,29.10
2012,08,04,16,23,29.10
2012,08,04,16,24,29.10
2012,08,04,16,25,29.10
2012,08,04,16,26,29.20
2012,08,04,16,27,29.20
2012,08,04,16,28,29.20
2012,08,04,16,29,29.20
2012,08,04,16,30,29.20
2012,08,04,16,31,29.20
2012,08,04,16,32,29.20
2012,08,04,16,33,29.20
2012,08,04,16,34,29.20
2012,08,04,16,35,29.20
2012,08,04,16,36,29.20
2012,08,04,16,37,29.20
2012,08,04,16,38,29.20
2012,08,04,16,39,29.20
2012,08,04,16,40,29.10
2012,08,04,16,41,29.20
2012,08,04,16,42,29.20
2012,08,04,16,43,29.20
2012,08,04,16,44,29.30
2012,08,04,16,45,29.30
2012,08,04,16,46,29.20
2012,08,04,16,47,29.30
2012,08,04,16,48,29.30
2012,08,04,16,49,29.30
2012,08,04,16,50,29.30
2012,08,04,16,51,29.30
2012,08,04,16,52,29.30
2012,08,04,16,53,29.30
2012,08,04,16,54,29.30
2012,08,04,16,55,29.40
2012,08,04,16,56,29.40
2012,08,04,16,57,29.40
2012,08,04,16,58,29.40
2012,08,04,16,59,29.40
2012,08,04,17,00,29.30
2012,08,04,17,01,29.30
2012,08,04,17,02,29.40
2012,08,04,17,03,29.40
2012,08,04,17,04,29.50
2012,08,04,17,05,29.60
2012,08,04,17,06,29.60
2012,08,04,17,07,29.60
2012,08,04,17,08,29.50
2012,08,04,17,09,29.50
2012,08,04,17,10,29.40
2012,08,04,17,11,29.40
2012,08,04,17,12,29.40
2012,08,04,17,13,29.40
2012,08,04,17,14,29.40
2012,08,04,17,15,29.40
2012,08,04,17,16,29.40
2012,08,04,17,17,29.30
2012,08,04,17,18,29.30
2012,08,04,17,19,29.30